Regional Weather Roundup
Issued by NWS

Home | Current Version | Previous Version | Graphics & Text | Print | Product List | Glossary Off
Versions: 1 2 3 4 5 6 7 8 9 10 11 12 13 14 15 16 17 18 19 20 21 22 23 24 25 26 27 28 29 30 31 32 33 34 35 36 37 38 39 40 41 42 43 44 45 46 47 48 49 50

000
ASUS43 KFSD 241402
RWRSD

WEATHER ROUNDUP FOR SOUTH DAKOTA
NATIONAL WEATHER SERVICE SIOUX FALLS SD
800 AM CST TUE JAN 24 2017

NOTE: "FAIR" INDICATES FEW OR NO CLOUDS BELOW 12,000 FEET WITH NO
SIGNIFICANT WEATHER AND/OR OBSTRUCTIONS TO VISIBILITY.


SDZ001>005-009-010-012>017-241500-
NORTHWEST AND NORTH CENTRAL SOUTH DAKOTA

CITY           SKY/WX    TMP DP  RH WIND       PRES   REMARKS
FAITH            N/A     24  22  91 NE17      29.78R WCI  11
MOBRIDGE       CLOUDY    27  21  78 N10       29.81R WCI  17
$$

SDZ012>016-024>037-041>051-057-063-072>074-241500-
SOUTHWEST AND SOUTH CENTRAL SOUTH DAKOTA

CITY           SKY/WX    TMP DP  RH WIND       PRES   REMARKS
RAPID CTY ARPT LGT SNOW  21  18  88 N20G25    29.74R FOG     WCI   6
PIERRE         FOG       28  27  96 NE20      29.77R VSB 1/2 WCI  15
CUSTER         LGT SNOW  19  16  88 E3        29.59R VSB 3/4
PINE RIDGE     LGT SNOW  24  22  91 N9        29.68R VSB 1   WCI  14
SPEARFISH      LGT SNOW  16  14  93 W6        29.76R VSB 3/4 WCI   7
WINNER         LGT SNOW  30  29  96 E12       29.69F VSB 1   WCI  20
$$

SDZ004>011-016>023-039-040-241500-
NORTHEAST SOUTH DAKOTA

CITY           SKY/WX    TMP DP  RH WIND       PRES   REMARKS
ABERDEEN       LGT SNOW  28  24  85 NE15      29.85S FOG     WCI  16
WATERTOWN      CLOUDY    28  26  92 E9        29.82S WCI  19
BROOKINGS      CLOUDY    29  27  92 E14       29.81R FOG     WCI  18
SISSETON         N/A     30  28  92 NE9       29.86F WCI  22
$$

SDZ017-020-022-023-036>040-048>070-241500-
SOUTHEAST SOUTH DAKOTA

CITY           SKY/WX    TMP DP  RH WIND       PRES   REMARKS
SIOUX FALLS    CLOUDY    31  29  92 E14       29.79F WCI  21
HURON          CLOUDY    30  29  96 E9        29.80S WCI  22
CHAMBERLAIN    FOG       31  31 100 E12G18    29.73F VSB 1   WCI  22
MITCHELL       CLOUDY    32  30  92 E10       29.78F WCI  24
YANKTON        CLOUDY    30  27  86 E15       29.74F WCI  19
$$

ABBREVIATIONS USED IN REMARKS
   TC - TEMPERATURE IN CELSIUS
  WCI - WIND CHILL INDEX
   HX - HEAT INDEX
  VSB - VISIBILITY





USA.gov is the U.S. government's official web portal to all federal, state and local government web resources and services.